Huntsville, AL

7:35 AM CST on November 19, 2017 (GMT -0600)
Huntsville International

Weather History for KHSV - February, 2014

Change the Weather History Date:

Monday, February 10, 2014

  Actual Average Record
Temperature  
Mean Temperature 35 °F 44 °F  
Max Temperature 39 °F 55 °F 76 °F (1938)
Min Temperature 30 °F 34 °F 9 °F (1971)
Degree Days  
Heating Degree Days 30 21  
Month to date heating degree days 246 215  
Since 1 July heating degree days 2470 2125  
Cooling Degree Days 0 0  
Month to date cooling degree days 0 0  
Year to date cooling degree days 0 0  
Moisture  
Dew Point 28 °F    
Average Humidity 74    
Maximum Humidity 92    
Minimum Humidity 56    
Precipitation  
Precipitation T in 0.17 in 4.04 in (1994)
Month to date precipitation 2.42 1.68  
Year to date precipitation 5.72 6.57  
Snow  
Snow 0.00 in - - ()
Month to date snowfall T  
Since 1 July snowfall T  
Snow Depth 0.00 in    
Sea Level Pressure  
Sea Level Pressure 30.20 in    
Wind  
Wind Speed 12 mph (NNE)    
Max Wind Speed 17 mph    
Max Gust Speed 23 mph    
Visibility 8 miles    
Events Rain    
T = Trace of Precipitation, MM = Missing Value Source: NWS Daily Summary

Daily Weather History Graph

Daily Weather History Graph

Search for Another Location

Airport or City:

Trip Planner

Search our weather history database for the weather conditions in past years. The results will help you decide how hot, cold, wet, or windy it might be!

Date:

Astronomy

Feb. 10, 2014 Rise Set
Actual Time 6:37 AM CST 5:25 PM CST
Civil Twilight 6:11 AM CST 5:51 PM CST
Nautical Twilight 5:41 AM CST 6:21 PM CST
Astronomical Twilight 5:12 AM CST 6:50 PM CST
Moon 1:58 PM CST (2/10) 3:26 AM CST (2/10)
Length of Visible Light 11h 39m
Length of Day
10h 47m
Waxing Gibbous, 85% of the Moon is Illuminated
Feb 10
Waxing Gibbous
Feb 14
Full
Feb 22
Last Quarter
Mar 1
New
Mar 8
First Quarter

Hourly Weather History & Observations

Time (CST) Temp. Windchill Dew Point Humidity Pressure Visibility Wind Dir Wind Speed Gust Speed Precip Events Conditions
12:12 AM 39.2 °F 32.5 °F 35.6 °F 87% 30.15 in 10.0 mi NNE 10.4 mph - N/A   Overcast
12:53 AM 37.9 °F 29.6 °F 35.1 °F 89% 30.14 in 10.0 mi North 13.8 mph - N/A   Overcast
1:11 AM 37.4 °F 30.8 °F 33.8 °F 87% 30.13 in 9.0 mi NNE 9.2 mph - N/A   Overcast
1:53 AM 36.0 °F 29.0 °F 33.1 °F 89% 30.13 in 9.0 mi North 9.2 mph - N/A   Overcast
2:51 AM 35.6 °F 30.7 °F 32.0 °F 87% 30.12 in 10.0 mi NNE 5.8 mph - N/A   Overcast
2:53 AM 36.0 °F 30.3 °F 32.0 °F 86% 30.12 in 10.0 mi NNE 6.9 mph - N/A   Overcast
3:53 AM 35.1 °F 28.6 °F 32.0 °F 89% 30.13 in 8.0 mi North 8.1 mph - N/A   Overcast
4:53 AM 35.1 °F 27.9 °F 30.9 °F 85% 30.15 in 8.0 mi North 9.2 mph - N/A   Overcast
5:20 AM 33.8 °F 25.3 °F 30.2 °F 87% 30.14 in 5.0 mi North 11.5 mph - N/A   Overcast
5:44 AM 33.8 °F 27.7 °F 32.0 °F 93% 30.15 in 2.0 mi North 6.9 mph - 0.00 in   Light Drizzle
5:53 AM 33.1 °F 24.4 °F 30.9 °F 92% 30.17 in 2.0 mi North 11.5 mph - 0.00 in   Light Drizzle
6:53 AM 33.1 °F 26.1 °F 30.9 °F 92% 30.18 in 3.0 mi North 8.1 mph - 0.00 in   Light Drizzle
7:53 AM 33.1 °F 23.4 °F 30.0 °F 89% 30.21 in 2.5 mi North 13.8 mph - 0.00 in   Light Drizzle
8:03 AM 33.8 °F 24.8 °F 30.2 °F 87% 30.20 in 3.0 mi NNE 12.7 mph - 0.00 in   Light Drizzle
8:31 AM 32.0 °F 21.6 °F 30.2 °F 93% 30.21 in 5.0 mi North 15.0 mph 18.4 mph 0.00 in   Overcast
8:53 AM 32.0 °F 21.6 °F 28.0 °F 85% 30.22 in 5.0 mi NNE 15.0 mph - 0.00 in   Overcast
9:32 AM 32.0 °F 23.0 °F 28.4 °F 87% 30.22 in 4.0 mi NNE 11.5 mph - 0.00 in   Light Freezing Drizzle
9:43 AM 32.0 °F 23.6 °F 28.4 °F 87% 30.23 in 6.0 mi North 10.4 mph - 0.00 in   Overcast
9:53 AM 32.0 °F 22.5 °F 28.0 °F 85% 30.25 in 6.0 mi NNE 12.7 mph - 0.00 in   Overcast
10:53 AM 33.1 °F 24.4 °F 28.0 °F 82% 30.24 in 7.0 mi North 11.5 mph - N/A   Overcast
11:17 AM 33.8 °F 23.9 °F 26.6 °F 75% 30.22 in 8.0 mi NNE 15.0 mph - N/A   Overcast
11:53 AM 34.0 °F 25.0 °F 28.0 °F 79% 30.22 in 8.0 mi NNE 12.7 mph - N/A   Overcast
12:53 PM 36.0 °F 27.5 °F 28.0 °F 73% 30.19 in 9.0 mi NNE 12.7 mph - N/A   Overcast
1:53 PM 36.0 °F 27.1 °F 27.0 °F 70% 30.19 in 9.0 mi NNE 13.8 mph - N/A   Overcast
2:53 PM 36.0 °F 27.5 °F 26.1 °F 67% 30.19 in 10.0 mi NNE 12.7 mph - N/A   Mostly Cloudy
3:00 PM 37.4 °F 28.9 °F 26.6 °F 65% 30.19 in 10.0 mi NE 13.8 mph - N/A   Mostly Cloudy
3:53 PM 37.0 °F 29.3 °F 26.1 °F 65% 30.21 in 10.0 mi NNE 11.5 mph - N/A   Mostly Cloudy
4:53 PM 36.0 °F 27.5 °F 25.0 °F 64% 30.22 in 10.0 mi NNE 12.7 mph - N/A   Mostly Cloudy
5:53 PM 35.1 °F 26.4 °F 24.1 °F 64% 30.22 in 10.0 mi NNE 12.7 mph 19.6 mph N/A   Mostly Cloudy
6:53 PM 34.0 °F 28.0 °F 24.1 °F 67% 30.24 in 10.0 mi NNE 6.9 mph - N/A   Mostly Cloudy
7:53 PM 33.1 °F 24.9 °F 23.0 °F 66% 30.25 in 10.0 mi North 10.4 mph - N/A   Overcast
8:53 PM 32.0 °F 21.6 °F 21.9 °F 66% 30.25 in 10.0 mi NNE 15.0 mph - N/A   Overcast
9:53 PM 32.0 °F 22.5 °F 21.0 °F 64% 30.25 in 10.0 mi NNE 12.7 mph - N/A   Overcast
10:53 PM 31.1 °F 21.9 °F 18.0 °F 58% 30.27 in 10.0 mi North 11.5 mph - N/A   Overcast
11:53 PM 30.0 °F 19.5 °F 17.1 °F 59% 30.25 in 10.0 mi NNE 13.8 mph - N/A   Overcast